Location: Hurstbourne Priors
(51.2000°N, 1.3667°W)
Time: 20:49:41
(UTC+00:00)

Altair - Pass Details

Date: 14 April 2021
Orbit: 1501 x 1683 km, 47.2° (Epoch: 13 May)

Event Time Altitude Azimuth Distance (km) Brightness Sun altitude
Rises 05:26:36 0° 183° (S) 4,854 9.9 1.3°
Reaches altitude 10° 05:31:10 10° 166° (SSE) 3,840 9.6 2.0°
Maximum altitude 05:36:53 17° 129° (SE) 3,240 9.9 2.9°
Drops below altitude 10° 05:42:30 10° 92° (E) 3,762 11.6 3.8°
Sets 05:46:52 0° 74° (ENE) 4,717 12.8 4.5°
